Location: Unspecified
(41.5000°N, 0.0000°E)
Time: 06:49:47
(UTC+00:00)

Vanguard 1 - Pass Details

Date: 26 June 2019
Orbit: 653 x 3830 km, 34.3° (Epoch: 15 July)

Event Time Altitude Azimuth Distance (km) Brightness Sun altitude
Rises 21:56:25 0° 193° (SSW) 7,729 14.2 -18.8°
Enters shadow 22:00:09 - 186° (S) 7,285 14.0 -19.2°
Exits shadow 22:19:08 23° 138° (SE) 5,702 13.3 -20.8°
Drops below altitude 10° 22:32:25 10° 96° (E) 6,011 13.8 -21.8°
Sets 22:37:52 0° 83° (E) 6,576 14.1 -22.2°
